Location: Helion Bumpstead
(52.0500°N, 0.4000°E)
Time: 20:41:33
(UTC+00:00)

Cosmos 1980 - Pass Details

Date: 15 November 2025
Orbit: 836 x 847 km, 71.0° (Epoch: 14 December)

Event Time Altitude Azimuth Distance (km) Brightness Sun altitude
Exits shadow 05:04:19 39° 263° (W) 1,239 4.0 -20.4°
Maximum altitude 05:05:53 50° 309° (NW) 1,063 3.9 -20.2°
Drops below altitude 10° 05:11:25 10° 25° (NNE) 2,478 6.4 -19.3°
Sets 05:13:58 0° 30° (NNE) 3,418 7.2 -18.9°
